RH
15 15 15 15 14 14 13 14 15 16 17 17 16 15 15 15 16 17 17 17 16 17 17 16 17 18 18 18 17 16 16 16 16 16 16 16 15 15 14 13 12 13 13 12 12 11 10 10 11 12 12 12 12 14 16 18 21 25 28 28 26 24 23 23 23 22 22 23 23 23 29 36 39 38 38 40 40 42 47 48 52 55 50 45 46 49 55 57
16 16 16 15 15 15 14 14 14 16 18 18 18 18 17 16 17 19 18 16 15 15 16 16 16 17 17 17 17 16 16 15 15 15 16 17 16 15 15 15 15 15 14 13 13 12 10 11 12 14 14 14 14 14 15 15 18 21 23 24 21 20 20 20 21 22 22 24 25 24 25 31 37 38 39 41 39 45 50 51 55 57 52 49 47 47 52 57
16 16 16 16 16 15 14 14 14 15 17 19 19 19 19 19 20 22 20 16 15 14 14 15 15 16 16 15 15 15 16 15 15 18 19 18 17 16 16 16 17 17 16 15 14 13 12 12 13 15 15 15 15 15 16 15 16 18 21 22 18 18 20 20 21 22 22 24 26 25 23 26 32 36 40 42 40 44 49 52 56 57 54 52 49 47 52 58
17 17 17 17 16 15 14 14 14 14 16 19 18 18 19 18 19 21 19 17 15 14 13 14 14 14 13 13 14 15 15 15 18 22 20 19 18 18 18 18 18 18 17 16 15 13 13 12 13 15 16 16 16 16 17 16 16 16 17 17 17 18 20 20 20 21 21 23 25 25 23 22 26 32 37 41 42 42 43 47 52 53 54 53 50 48 50 58
18 18 17 17 16 16 15 14 14 14 15 18 19 18 18 18 17 17 17 17 16 15 15 14 14 14 13 13 13 13 13 14 21 23 21 21 21 20 21 21 20 18 17 16 16 14 13 14 14 15 16 17 17 17 18 17 16 16 15 14 15 17 19 20 19 20 20 21 23 24 24 20 23 29 33 38 40 40 39 43 48 49 52 53 53 51 49 54
18 18 18 17 17 16 16 15 14 14 16 18 19 19 18 18 17 17 17 17 17 17 17 16 15 14 13 13 13 14 13 13 18 20 19 19 19 19 20 19 18 17 17 16 15 14 13 15 15 15 16 17 18 19 18 17 17 17 16 14 15 15 17 18 19 19 19 20 21 22 22 20 24 27 29 34 35 35 37 42 46 46 49 52 52 53 51 53
17 17 17 17 17 17 16 15 15 15 16 19 20 19 19 18 18 18 17 18 18 17 17 17 16 15 14 14 13 15 15 13 13 14 15 16 15 15 15 14 14 14 13 13 12 12 13 14 15 15 16 17 18 18 18 18 18 18 16 15 16 16 17 17 18 20 19 20 20 20 21 20 23 24 24 30 31 31 35 40 43 42 46 52 51 48 47 47
17 16 16 17 17 17 17 16 15 15 17 19 20 20 20 19 18 17 17 17 17 17 17 17 17 17 16 16 15 15 14 12 13 13 14 14 13 13 13 13 13 12 11 10 10 10 10 11 12 14 16 16 16 16 17 17 19 19 18 16 15 16 17 18 18 19 19 19 19 19 20 19 18 20 21 25 30 31 32 36 40 40 42 50 50 45 43 43
17 16 16 17 17 17 17 16 15 16 18 20 20 21 20 20 19 18 17 17 17 18 18 19 20 21 21 20 18 16 13 13 14 14 13 13 13 13 13 13 13 12 11 10 10 9 10 10 10 12 13 13 13 14 14 15 17 18 19 18 17 17 16 17 17 18 19 19 19 19 19 18 16 19 22 22 27 31 33 34 38 40 41 46 50 47 44 44
17 17 16 16 17 17 17 16 16 16 18 20 21 21 21 21 20 19 17 17 18 20 22 24 25 25 25 23 20 18 14 14 15 14 15 14 14 14 14 14 13 13 12 12 10 10 10 10 10 10 11 10 11 11 12 14 15 14 16 18 19 19 17 16 16 17 18 18 19 19 18 18 17 19 20 18 23 31 33 35 37 41 43 46 50 50 47 45
18 17 17 16 17 17 17 16 16 16 19 21 21 22 22 22 22 20 18 17 18 21 24 25 27 29 28 26 25 20 15 16 17 16 15 15 15 15 15 15 14 14 14 13 12 11 10 11 11 11 11 11 10 10 10 11 12 13 14 16 17 19 19 18 17 16 17 17 18 19 19 18 20 20 16 13 20 29 33 36 36 39 45 49 49 49 49 47
17 17 17 17 17 17 17 17 16 17 20 21 22 22 23 23 23 22 19 19 20 21 23 25 29 30 30 30 28 21 17 17 17 15 15 16 16 16 16 16 15 15 15 14 13 11 11 11 11 11 11 12 11 11 10 10 10 11 12 15 15 16 18 19 20 18 18 17 16 19 21 20 20 18 12 11 17 25 33 36 37 38 43 50 52 51 51 48
16 17 17 18 18 18 18 17 16 18 21 22 22 23 24 24 23 22 20 20 22 23 23 26 29 31 34 32 26 21 20 18 16 15 15 16 17 17 17 17 17 17 16 15 13 12 12 12 12 12 12 12 11 11 11 10 10 11 11 14 15 16 16 16 18 21 21 18 16 19 23 20 16 14 10 10 15 21 31 37 39 40 40 47 53 55 54 51
16 17 18 18 18 19 19 18 17 19 22 23 23 23 24 25 25 23 22 22 24 25 25 27 29 31 34 31 25 24 23 21 20 18 17 16 17 17 17 18 19 18 17 17 15 14 14 14 14 14 13 13 12 12 12 12 13 13 13 13 15 17 16 14 14 19 23 21 18 21 24 19 14 14 11 11 13 17 26 35 40 42 43 46 50 52 54 53
17 18 18 18 19 20 19 19 17 20 24 24 23 24 24 25 26 25 24 25 25 26 27 29 31 31 34 31 27 27 26 24 24 22 20 19 19 19 19 19 19 19 19 19 18 17 17 16 16 16 15 14 14 14 15 16 16 16 16 14 15 17 15 12 13 15 19 22 24 26 25 19 15 14 13 13 14 16 21 31 39 44 45 48 50 51 52 53
17 18 19 19 20 20 20 19 18 21 25 25 24 24 24 24 25 25 25 27 27 28 29 32 33 33 36 33 27 29 30 30 29 27 26 24 22 22 21 21 21 22 21 20 20 20 19 19 18 18 16 16 16 17 18 19 19 17 17 16 16 18 16 14 13 13 16 21 26 30 27 19 16 14 13 15 16 16 18 27 38 44 45 48 51 52 54 54
19 18 18 20 22 21 21 20 19 22 25 26 25 24 24 24 24 26 28 29 29 31 33 36 38 38 38 33 29 31 32 33 34 33 32 29 26 24 24 24 24 24 23 22 23 21 22 22 22 22 19 18 19 20 23 24 21 18 19 19 18 21 21 20 17 13 15 19 23 30 29 20 17 16 14 14 15 17 18 24 37 44 45 47 50 53 55 55
22 20 19 20 22 22 21 21 21 23 26 28 27 25 25 24 25 28 31 31 31 34 38 41 42 40 37 34 33 34 33 34 35 35 35 33 31 29 27 27 27 26 25 25 25 24 25 25 26 27 24 22 22 24 26 23 20 20 22 23 21 22 23 22 20 15 15 19 21 26 28 21 18 18 16 14 14 18 19 21 31 42 45 47 49 52 54 54
24 23 21 20 20 21 21 22 23 26 28 28 28 27 26 25 27 29 32 33 35 39 41 44 44 41 39 36 35 36 35 35 35 36 38 39 38 36 35 34 33 32 30 31 32 30 29 29 30 30 28 27 27 27 25 21 20 23 24 24 24 24 23 20 19 16 17 22 22 24 25 22 21 20 18 15 14 19 21 21 28 39 46 49 50 51 53 54
24 24 23 21 20 20 21 23 26 28 30 30 29 28 28 29 30 32 34 36 40 43 43 45 47 47 45 43 43 44 44 43 43 43 43 44 44 43 42 41 40 39 39 41 43 38 35 35 33 30 30 32 32 30 28 25 24 24 24 25 25 26 24 19 17 15 19 25 24 22 23 22 22 22 20 18 15 17 22 25 29 35 43 49 51 50 51 53
25 25 24 23 20 20 22 25 27 29 31 32 31 30 32 33 34 35 36 37 39 43 45 46 50 52 50 50 52 54 55 53 52 51 49 49 50 48 48 47 45 45 47 48 49 45 42 39 34 33 35 36 35 34 31 29 28 26 26 26 25 25 24 18 16 15 17 25 25 22 22 22 22 22 22 21 19 17 20 26 30 32 38 45 48 49 49 51
27 26 26 25 22 21 23 27 29 30 32 34 32 33 36 36 35 37 40 42 41 42 46 48 51 53 52 55 57 58 61 61 58 56 54 53 53 52 50 49 49 49 50 51 51 52 50 42 38 39 40 37 36 36 34 32 30 29 28 28 26 24 23 19 16 14 15 21 24 23 22 21 22 23 23 24 22 18 17 21 26 29 35 41 45 48 48 50
28 28 28 26 24 24 26 29 30 31 34 35 34 35 38 38 37 39 42 47 48 45 47 50 52 53 54 58 58 57 60 61 59 55 55 54 54 54 51 49 51 49 50 54 55 58 54 45 43 44 42 39 38 37 36 35 33 32 30 31 29 24 26 26 19 16 16 18 21 23 24 21 22 25 24 25 24 20 16 18 21 25 31 35 39 44 46 48
29 30 29 28 26 27 29 31 31 32 34 36 36 37 38 38 38 41 44 49 54 51 50 52 53 54 55 56 57 57 56 55 55 54 53 52 53 55 53 53 55 51 52 54 55 56 50 46 48 49 46 44 42 39 38 38 37 35 33 33 31 26 28 28 23 20 19 18 18 22 27 22 20 25 25 24 24 22 18 18 21 23 25 28 32 40 43 44
30 32 31 29 29 30 31 32 32 33 35 37 38 37 38 39 39 42 45 50 56 54 52 54 55 55 55 56 58 57 54 54 56 56 53 51 53 56 55 56 57 56 57 58 59 56 46 46 52 54 53 49 45 42 40 41 40 38 36 34 32 30 29 28 26 25 25 24 18 22 33 28 22 26 26 25 25 25 21 19 21 23 24 25 30 38 41 40
32 34 33 32 32 33 33 33 34 35 37 39 39 38 40 41 41 44 47 54 59 55 55 56 56 57 56 58 61 58 58 57 55 56 56 56 58 59 57 55 55 56 58 60 61 56 47 50 57 58 56 51 46 43 38 41 44 41 35 33 33 32 30 29 27 28 31 28 19 22 36 33 27 29 28 28 28 27 24 20 19 22 24 27 28 33 36 36
34 35 36 34 34 35 35 35 35 36 38 40 39 40 42 41 43 45 47 58 62 57 59 58 56 59 59 61 62 59 62 58 52 55 56 57 61 61 61 61 61 61 58 60 60 54 51 58 62 59 55 51 46 42 38 42 47 41 33 33 35 32 31 29 29 32 33 29 22 24 33 33 31 32 28 29 31 28 27 23 19 20 22 26 28 29 31 33
35 37 38 37 36 38 37 37 38 38 39 41 40 42 42 42 44 46 50 63 64 57 61 60 57 60 60 63 64 60 60 57 54 55 53 56 62 65 68 71 74 74 69 69 66 60 60 63 62 59 55 50 45 41 41 46 47 38 31 35 36 33 33 31 32 37 38 37 33 26 30 32 30 29 27 28 31 29 28 25 20 19 20 23 25 27 28 30
36 38 40 40 39 40 40 40 40 39 40 41 41 42 42 44 45 45 54 64 62 59 62 61 59 60 61 65 64 57 53 53 54 56 57 63 67 70 74 78 80 80 79 78 72 68 68 67 63 60 55 50 46 42 41 46 47 40 37 39 37 34 35 33 37 41 42 48 44 29 30 37 31 26 28 30 31 30 28 25 21 18 18 18 20 23 27 29
36 39 42 42 42 42 41 42 42 40 42 43 43 42 43 46 45 50 63 65 62 62 61 60 60 61 63 61 53 45 46 51 56 60 63 65 66 66 69 73 74 73 76 75 69 67 68 68 67 62 56 51 48 43 41 45 46 43 41 39 36 35 35 36 37 41 47 56 49 30 30 44 41 28 27 32 33 30 28 26 22 19 18 17 17 20 26 30
36 39 43 43 44 45 43 44 43 41 43 44 44 42 43 46 47 57 69 65 62 64 61 62 63 63 62 57 47 41 44 51 55 62 66 63 61 61 59 65 68 66 69 69 66 67 68 69 67 61 58 56 52 46 41 42 45 45 43 39 40 41 41 43 40 43 56 58 47 31 29 47 53 34 26 33 33 29 29 27 23 20 19 18 17 18 23 29
36 39 42 44 46 47 45 45 44 42 42 44 44 43 44 48 52 62 68 65 67 68 64 65 64 60 58 55 51 45 44 49 53 57 60 57 58 59 57 61 65 66 67 66 67 69 66 65 63 59 58 57 56 50 42 42 45 45 44 43 46 48 51 55 48 49 59 55 43 32 29 45 55 37 25 30 32 29 28 28 25 21 20 19 17 17 21 27
37 39 42 45 48 48 46 46 45 43 43 43 44 45 45 51 58 63 66 69 71 68 66 67 65 59 54 53 52 47 44 48 52 53 54 54 56 58 58 59 59 62 64 63 67 67 62 58 55 53 53 54 56 52 45 46 46 45 46 48 52 57 66 71 61 59 64 56 42 32 32 44 51 41 29 27 30 29 27 27 25 21 20 20 17 16 18 23
39 40 43 47 50 49 48 48 46 45 45 43 44 46 47 53 58 60 66 71 69 68 69 69 65 58 54 54 53 51 51 50 51 53 54 55 56 56 59 60 59 61 63 65 66 66 64 57 50 48 49 51 53 49 45 47 48 46 45 50 56 61 70 73 66 67 69 61 47 38 39 43 45 41 31 26 29 30 28 27 25 22 20 20 19 18 19 22
41 44 47 50 51 50 50 50 48 48 47 46 48 50 51 56 58 59 65 68 67 69 68 66 64 59 55 56 54 53 56 55 53 54 56 57 57 56 58 60 61 62 64 67 65 61 62 56 48 49 49 50 54 50 47 47 48 46 45 51 54 54 59 62 60 65 70 69 59 48 46 44 42 39 29 24 30 31 31 31 28 25 22 20 20 20 21 23
45 47 51 53 53 52 53 52 51 50 49 50 52 53 55 57 57 59 63 64 65 67 64 61 62 61 57 54 51 52 55 56 56 57 58 59 58 58 60 63 65 66 65 70 68 63 63 55 47 48 48 49 54 53 49 48 49 50 49 50 50 49 56 60 60 63 69 73 63 49 46 42 39 39 28 23 29 32 34 34 31 29 24 22 21 20 21 24
47 50 54 55 54 54 55 53 52 51 50 53 56 56 56 54 54 57 59 60 65 67 64 63 61 59 58 56 52 51 53 56 58 60 62 62 61 62 64 66 68 68 70 75 76 71 68 59 47 48 49 48 50 51 49 48 50 53 50 46 49 56 59 61 67 70 71 73 63 49 45 40 37 40 34 26 28 33 34 33 33 31 27 24 21 18 20 23
50 52 56 56 56 57 56 56 54 51 52 56 58 59 59 54 51 53 54 57 65 68 68 69 64 60 60 61 59 52 51 58 59 62 67 67 67 67 67 68 68 69 73 79 83 81 78 70 56 49 52 52 50 50 51 50 49 50 49 46 53 66 69 68 73 73 69 70 65 54 47 40 35 36 33 29 30 35 38 37 39 38 32 28 23 18 18 22
52 55 58 58 59 59 59 58 55 52 54 57 60 60 59 55 51 50 51 56 62 67 72 72 69 68 66 65 63 54 51 57 60 63 68 69 69 67 67 70 71 71 73 78 85 86 86 86 75 59 55 58 55 52 52 52 52 51 51 51 54 63 68 69 70 68 67 70 69 65 57 42 33 30 30 34 37 41 44 45 46 44 37 32 28 22 19 21
54 59 61 60 62 62 60 59 56 55 56 58 60 62 61 57 52 48 48 51 57 66 74 74 72 77 75 68 67 62 55 56 60 63 66 67 68 69 69 70 73 75 74 74 81 87 89 93 88 74 66 64 60 55 52 53 56 58 54 54 55 57 58 62 64 62 65 70 72 73 66 46 37 42 45 48 50 48 47 47 47 45 40 34 31 27 21 21
57 64 63 61 65 65 61 60 59 59 61 61 60 62 62 58 53 50 46 46 55 66 74 75 74 78 79 73 69 68 66 67 68 68 67 66 68 74 74 71 71 75 75 75 80 89 94 95 91 84 78 73 63 56 53 52 56 60 56 52 54 57 58 62 67 63 62 69 70 70 63 45 40 51 56 57 56 51 48 50 48 45 40 35 33 30 25 23
60 65 65 63 66 66 63 64 64 62 63 62 59 60 59 58 55 50 44 44 55 67 75 79 77 76 78 75 66 67 78 84 83 83 77 68 67 76 79 73 70 71 75 79 82 87 93 98 96 87 80 76 66 55 51 51 52 56 55 50 52 58 58 59 68 70 68 70 68 65 61 50 46 52 55 58 57 51 49 50 48 45 40 36 34 31 28 25
61 65 66 65 68 66 64 67 66 63 62 60 59 59 57 57 55 47 42 45 55 65 73 80 80 74 72 71 64 65 77 85 85 86 82 69 65 73 78 74 71 72 79 85 85 86 92 98 99 91 79 73 66 55 48 48 51 53 51 46 46 50 50 53 63 70 70 70 70 69 62 51 47 48 49 56 58 52 48 47 47 47 41 36 34 31 30 27
64 67 67 68 70 68 65 66 65 63 62 59 60 61 57 56 54 45 41 47 54 60 69 77 82 76 68 66 64 64 71 77 77 76 75 69 62 66 74 74 70 71 78 85 85 87 93 97 99 97 89 75 65 58 50 48 50 49 44 40 38 40 46 52 58 65 70 68 67 68 60 46 42 43 44 54 58 51 49 49 49 48 44 38 33 30 31 29
67 70 67 68 71 69 67 65 63 63 62 60 61 62 59 56 53 45 41 45 51 55 61 70 78 78 70 65 65 64 65 69 71 69 70 69 61 60 71 76 71 68 70 77 84 87 93 99 99 99 96 82 68 63 57 52 50 44 37 34 34 37 43 50 56 63 67 64 61 64 58 45 40 42 44 53 57 51 51 53 51 48 46 41 33 29 32 32
71 74 70 68 68 67 66 63 60 61 62 62 63 62 60 58 54 47 41 43 48 50 54 63 73 79 76 70 64 61 62 66 69 69 70 71 64 60 68 74 74 72 70 75 84 88 94 101 98 97 95 83 69 62 58 54 52 45 37 33 33 36 38 44 55 61 60 60 61 59 55 48 45 46 45 50 56 54 53 55 53 48 46 43 36 32 33 33
71 75 74 71 68 69 71 66 64 66 64 64 64 61 60 60 57 50 43 41 45 48 51 58 67 73 76 72 65 63 65 67 70 72 71 69 63 60 63 69 73 74 75 79 83 89 97 99 96 96 95 86 77 63 53 52 52 49 43 36 32 35 38 41 49 53 56 64 63 53 49 49 48 49 48 50 55 54 53 55 52 48 47 45 41 38 36 34
69 73 74 73 72 74 75 70 68 70 69 66 65 63 62 62 60 55 47 40 43 47 48 52 58 64 71 72 66 67 70 66 66 69 68 65 61 57 57 62 69 75 81 86 87 92 97 93 92 96 92 89 87 72 55 54 56 51 46 38 31 33 38 39 41 45 53 61 58 49 49 48 47 50 52 53 56 55 54 55 52 48 49 48 44 42 41 37
72 76 75 73 74 75 74 71 68 69 69 67 65 64 63 63 62 58 50 43 45 47 47 49 51 55 64 68 66 70 75 72 68 63 60 60 59 57 57 61 69 78 84 89 90 93 94 89 90 95 91 85 87 80 67 64 61 54 49 42 35 35 38 39 40 44 49 50 50 51 53 49 49 53 51 50 57 59 57 56 54 51 50 49 47 47 44 41
76 81 80 79 80 78 75 71 68 68 68 65 65 65 62 62 64 60 52 46 47 46 46 50 50 48 55 61 63 68 73 76 75 66 62 63 59 55 57 59 69 83 89 92 93 91 91 88 87 92 92 84 86 89 82 73 67 60 55 50 43 38 38 38 40 44 45 46 49 55 56 51 50 53 51 53 60 63 60 57 55 53 49 49 51 50 47 43
78 81 81 82 82 79 75 71 69 70 68 65 65 65 63 62 63 61 54 48 47 47 46 49 50 48 50 54 58 62 64 69 71 65 64 67 61 55 57 56 64 80 89 92 93 89 91 92 87 88 88 80 82 91 88 77 70 63 59 58 52 44 40 39 39 39 39 44 53 58 56 51 49 52 57 61 62 62 61 59 55 53 52 54 56 54 50 47
75 76 77 80 80 77 73 72 71 70 66 63 64 64 63 63 62 62 58 48 44 47 47 47 50 49 49 51 53 54 58 63 63 60 63 66 59 56 60 59 61 74 87 92 91 87 90 93 88 89 88 78 78 88 88 81 75 69 66 66 60 51 45 40 38 39 43 50 56 57 53 49 49 52 56 61 59 58 60 59 54 53 57 59 58 56 55 52